Regional Weather Roundup
Issued by NWS

Home | Current Version | Previous Version | Graphics & Text | Print | Product List | Glossary On
Versions: 1 2 3 4 5 6 7 8 9 10 11 12 13 14 15 16 17 18 19 20 21 22 23 24 25 26 27 28 29 30 31 32 33 34 35 36 37 38 39 40 41 42 43 44 45 46 47 48 49 50
000
ASUS43 KFSD 010702
RWRSD

WEATHER ROUNDUP FOR SOUTH DAKOTA
NATIONAL WEATHER SERVICE SIOUX FALLS SD
100 AM CST SUN MAR 01 2015

NOTE: "FAIR" INDICATES FEW OR NO CLOUDS BELOW 12,000 FEET WITH NO
SIGNIFICANT WEATHER AND/OR OBSTRUCTIONS TO VISIBILITY.


SDZ001>005-009-010-012>017-010800-
NORTHWEST AND NORTH CENTRAL SOUTH DAKOTA

CITY           SKY/WX    TMP DP  RH WIND       PRES   REMARKS
BUFFALO          N/A     11   6  81 W12       30.08S WCI  -3
FAITH            N/A     13   5  70 W10       30.18F WCI   0
MOBRIDGE       PTCLDY     5   0  79 CALM      30.19S
$$

SDZ012>016-024>037-041>051-057-063-072>074-010800-
SOUTHWEST AND SOUTH CENTRAL SOUTH DAKOTA

CITY           SKY/WX    TMP DP  RH WIND       PRES   REMARKS
RAPID CTY ARPT CLOUDY    12   8  84 CALM      30.19R
PIERRE         PTCLDY    11   4  73 W6        30.25S WCI   1
CUSTER         CLOUDY    10   5  80 SW5       30.02R WCI   2
ELLSWORTH AFB  MOCLDY    12   7  79 W5        30.17S WCI   5
PHILIP         CLOUDY    11   3  70 W5        30.25R WCI   3
PINE RIDGE     CLOUDY    19   7  59 NE6       30.18R WCI  11
WINNER         FAIR      16   1  51 CALM      30.24S
$$

SDZ004>011-016>023-039-040-010800-
NORTHEAST SOUTH DAKOTA

CITY           SKY/WX    TMP DP  RH WIND       PRES   REMARKS
ABERDEEN       PTCLDY     3  -3  76 W5        30.25S WCI  -6
WATERTOWN      CLEAR     10   3  73 NW5       30.21R WCI   2
SISSETON         N/A      8   3  80 NW7       30.22S WCI  -3
$$

SDZ017-020-022-023-036>040-048>070-010800-
SOUTHEAST SOUTH DAKOTA

CITY           SKY/WX    TMP DP  RH WIND       PRES   REMARKS
SIOUX FALLS    CLEAR     16  10  77 W3        30.24R
HURON          CLEAR      5   2  87 W3        30.27R
MITCHELL       CLEAR     14   9  80 NW10      30.28R WCI   1
YANKTON        PTCLDY    18  10  73 SW8       30.28S WCI   7
$$

ABBREVIATIONS USED IN REMARKS
   TC - TEMPERATURE IN CELSIUS
  WCI - WIND CHILL INDEX
   HX - HEAT INDEX
  VSB - VISIBILITY




USA.gov is the U.S. government's official web portal to all federal, state and local government web resources and services.